TimeCDT,TemperatureF,Dew PointF,Humidity,Sea Level PressureIn,VisibilityMPH,Wind Direction,Wind SpeedMPH,Gust SpeedMPH,PrecipitationIn,Events,Conditions,WindDirDegrees,DateUTC
12:58 AM,81.5,78.8,91,29.79,10.0,Calm,Calm,-,N/A,,Partly Cloudy,0,2013-06-29 05:58:00
1:13 AM,77.0,73.4,89,29.79,10.0,NE,8.1,-,N/A,,Mostly Cloudy,50,2013-06-29 06:13:00
1:58 AM,74.8,70.3,86,29.76,10.0,ENE,8.1,-,N/A,,Mostly Cloudy,70,2013-06-29 06:58:00
2:03 AM,75.2,69.8,83,29.76,10.0,ENE,6.9,-,N/A,,Mostly Cloudy,60,2013-06-29 07:03:00
2:18 AM,75.2,69.8,83,29.76,10.0,NE,2.3,-,N/A,,Scattered Clouds,40,2013-06-29 07:18:00
2:33 AM,75.2,69.8,83,29.75,10.0,NE,5.8,-,N/A,,Scattered Clouds,50,2013-06-29 07:33:00
2:58 AM,74.7,70.5,87,29.74,10.0,NE,5.8,-,N/A,,Partly Cloudy,40,2013-06-29 07:58:00
3:38 AM,73.4,69.8,88,29.77,10.0,NNW,6.9,-,N/A,Thunderstorm,Thunderstorm,330,2013-06-29 08:38:00
3:53 AM,73.4,71.6,94,29.79,10.0,NNW,9.2,-,N/A,Thunderstorm,Thunderstorm,340,2013-06-29 08:53:00
3:54 AM,73.4,71.6,94,29.79,10.0,NNW,6.9,-,N/A,Thunderstorm,Mostly Cloudy,340,2013-06-29 08:54:00
3:58 AM,73.2,70.9,92,29.79,10.0,Variable,6.9,-,N/A,Thunderstorm,Scattered Clouds,0,2013-06-29 08:58:00
3:59 AM,73.4,71.6,94,29.79,9.0,Variable,6.9,-,N/A,Rain-Thunderstorm,Light Rain,0,2013-06-29 08:59:00
4:36 AM,73.4,71.6,94,29.78,10.0,NNE,9.2,-,N/A,Rain-Thunderstorm,Light Thunderstorms and Rain,20,2013-06-29 09:36:00
4:51 AM,73.4,71.6,94,29.77,2.0,ENE,8.1,-,N/A,Rain-Thunderstorm,Heavy Thunderstorms and Rain,70,2013-06-29 09:51:00
4:56 AM,71.6,71.6,100,29.75,1.2,East,11.5,-,N/A,Rain-Thunderstorm,Heavy Thunderstorms and Rain,90,2013-06-29 09:56:00
4:58 AM,72.5,71.1,95,29.75,1.2,East,11.5,-,0.22,Rain-Thunderstorm,Heavy Thunderstorms and Rain,90,2013-06-29 09:58:00
5:03 AM,71.6,71.6,100,29.75,2.5,ENE,12.7,-,N/A,Rain-Thunderstorm,Light Thunderstorms and Rain,70,2013-06-29 10:03:00
5:05 AM,73.4,71.6,94,29.75,6.0,East,10.4,-,N/A,Rain-Thunderstorm,Light Rain,80,2013-06-29 10:05:00
5:10 AM,73.4,71.6,94,29.75,10.0,ENE,8.1,-,N/A,Rain-Thunderstorm,Light Rain,70,2013-06-29 10:10:00
5:55 AM,73.4,71.6,94,29.78,10.0,South,8.1,-,N/A,,Mostly Cloudy,180,2013-06-29 10:55:00
5:58 AM,73.4,71.6,94,29.78,10.0,South,6.9,-,0.04,,Mostly Cloudy,180,2013-06-29 10:58:00
6:29 AM,73.4,71.6,94,29.79,10.0,South,8.1,-,N/A,,Partly Cloudy,170,2013-06-29 11:29:00
6:58 AM,73.9,73.0,97,29.78,10.0,SSE,5.8,-,N/A,,Scattered Clouds,160,2013-06-29 11:58:00
7:03 AM,73.4,73.4,100,29.78,10.0,South,8.1,-,N/A,,Mostly Cloudy,170,2013-06-29 12:03:00
7:13 AM,73.4,73.4,100,29.79,10.0,South,8.1,-,N/A,,Partly Cloudy,170,2013-06-29 12:13:00
7:58 AM,75.0,73.6,95,29.80,10.0,South,8.1,-,N/A,,Clear,180,2013-06-29 12:58:00
8:58 AM,76.5,74.1,92,29.80,10.0,West,4.6,-,N/A,,Clear,280,2013-06-29 13:58:00
9:58 AM,79.2,74.3,85,29.79,10.0,WSW,8.1,-,N/A,,Scattered Clouds,250,2013-06-29 14:58:00
10:58 AM,82.4,71.6,70,29.79,10.0,West,11.5,-,N/A,,Scattered Clouds,260,2013-06-29 15:58:00
11:58 AM,83.8,70.5,64,29.79,10.0,West,10.4,-,N/A,,Mostly Cloudy,260,2013-06-29 16:58:00
2:58 PM,86.4,72.3,63,29.75,10.0,Variable,3.5,-,N/A,,Scattered Clouds,0,2013-06-29 19:58:00
3:58 PM,86.0,72.9,65,29.73,10.0,South,9.2,-,N/A,,Partly Cloudy,180,2013-06-29 20:58:00
4:58 PM,87.1,73.0,63,29.71,10.0,SSE,8.1,-,N/A,,Clear,160,2013-06-29 21:58:00
5:58 PM,85.5,73.6,67,29.70,10.0,South,6.9,-,N/A,,Clear,180,2013-06-29 22:58:00
6:58 PM,83.7,73.6,72,29.71,10.0,South,9.2,-,N/A,,Clear,190,2013-06-29 23:58:00
7:58 PM,81.1,73.4,77,29.73,10.0,South,8.1,-,N/A,,Clear,190,2013-06-30 00:58:00
8:58 PM,79.5,73.4,81,29.74,10.0,SW,6.9,-,N/A,,Scattered Clouds,220,2013-06-30 01:58:00
9:58 PM,77.2,73.9,90,29.78,10.0,NNW,8.1,-,N/A,,Partly Cloudy,340,2013-06-30 02:58:00
10:28 PM,77.0,73.4,89,29.75,10.0,NE,1.2,-,N/A,,Mostly Cloudy,50,2013-06-30 03:28:00
10:38 PM,77.0,73.4,89,29.76,10.0,Calm,Calm,-,N/A,,Scattered Clouds,0,2013-06-30 03:38:00
10:43 PM,77.0,73.4,89,29.76,10.0,NE,1.2,-,N/A,,Mostly Cloudy,50,2013-06-30 03:43:00
10:53 PM,77.0,73.4,89,29.76,10.0,East,2.3,-,N/A,,Mostly Cloudy,80,2013-06-30 03:53:00
10:58 PM,77.5,73.6,88,29.76,10.0,Calm,Calm,-,N/A,,Mostly Cloudy,0,2013-06-30 03:58:00
11:13 PM,77.0,73.4,89,29.77,10.0,Calm,Calm,-,N/A,,Scattered Clouds,0,2013-06-30 04:13:00
11:58 PM,75.9,72.7,90,29.75,10.0,East,4.6,-,N/A,,Clear,80,2013-06-30 04:58:00